Home   Weather   Vennesla   Past weeks

Flag for Norway Past Weather in Vennesla, Norway — Yesterday and Last 2 Weeks

Now
27 °F

Sunny.


Feels Like: 23 °F
Forecast: 23 / 41 °F
Wind: 3 mph from East

Location: Kristiansand / Kjevik

Current Time: Jan 16, 2017 at 2:01:20 pm

Latest Report: Jan 16, 2017 at 1:20 pm


Visibility: 10 mi

Pressure: 30.42 "Hg

Humidity: 59%

Dew Point: 14 °F

Location of VenneslaLocation

Past Weather in Vennesla — Graph

°F

Vennesla Temperature Yesterday

Maximum temperature yesterday: 30 °F (at 1:50 pm)
Minimum temperature yesterday: 16 °F (at 8:20 am)
Average temperature yesterday: 22 °F

High & Low Weather Summary for the Past Weeks

 TemperatureHumidityPressure
High48 °F (Jan 3, 2:50 pm)100% (Jan 6, 10:50 pm)30.69 "Hg (Jan 6, 10:50 pm)
Low12 °F (Jan 16, 9:50 am)20% (Jan 4, 1:20 pm)28.65 "Hg (Jan 11, 11:50 am)
Average33 °F80%29.80 "Hg
* Reported Jan 1 12:20 pm — Jan 16 12:50 pm, Vennesla, Weather by CustomWeather, © 2017

Note: Actual official high and low records may vary slightly from our data, if they occured in-between our weather recording intervals... More about our weather records

Advertising

Vennesla Weather History for the Previous 24 Hours

Scroll right to see more
 ConditionsComfort  
Time TempWeatherWind HumidityBarometerVisibility
12:50 pm
Mon, Jan 16
25 °FSunny.2 mph63%30.42 "Hg10 mi
12:20 pm23 °FSunny.2 mph63%30.39 "Hg10 mi
11:50 am23 °FSunny.2 mph63%30.39 "Hg10 mi
11:20 am21 °FSunny.2 mph63%30.39 "Hg10 mi
10:50 am18 °FSunny.3 mph73%30.39 "Hg10 mi
10:20 am16 °FSunny.3 mph73%30.39 "Hg10 mi
9:50 am12 °FSunny.3 mph79%30.39 "Hg10 mi
9:20 am14 °FSunny.2 mph79%30.39 "Hg10 mi
8:50 am14 °FClear.3 mph79%30.36 "Hg10 mi
8:20 am14 °FClear.5 mph79%30.36 "Hg10 mi
7:50 am14 °FPassing clouds.3 mph79%30.36 "HgN/A
7:20 am16 °FPassing clouds.6 mph79%30.33 "HgN/A
6:50 am16 °FClear.2 mph79%30.33 "Hg10 mi
6:20 am14 °FPassing clouds.3 mph85%30.33 "HgN/A
5:50 am16 °FClear.6 mph79%30.33 "Hg10 mi
5:20 am16 °FPassing clouds.7 mph79%30.33 "HgN/A
4:50 am16 °FPassing clouds.6 mph79%30.30 "HgN/A
4:20 am16 °FPassing clouds.3 mph79%30.30 "HgN/A
3:50 am16 °FPassing clouds.5 mph79%30.30 "HgN/A
3:20 am16 °FPassing clouds.3 mph79%30.30 "HgN/A
2:50 am16 °FPassing clouds.3 mph86%30.30 "HgN/A
2:20 am14 °FPassing clouds.6 mph85%30.27 "HgN/A
1:50 am14 °FPassing clouds.5 mph85%30.27 "HgN/A
1:20 am16 °FPassing clouds.2 mph86%30.27 "HgN/A
12:50 am18 °FPassing clouds.3 mph86%30.27 "HgN/A
12:20 am16 °FPassing clouds.3 mph79%30.27 "HgN/A
11:50 pm
Sun, Jan 15
16 °FClear.2 mph86%30.27 "Hg10 mi
11:20 pm16 °FClear.3 mph86%30.27 "Hg10 mi
10:20 pm18 °FClear.5 mph93%30.24 "Hg10 mi
9:50 pm18 °FClear.5 mph86%30.24 "Hg10 mi
9:20 pm19 °FClear.3 mph86%30.21 "Hg10 mi
8:50 pm19 °FClear.3 mph86%30.21 "Hg10 mi
8:20 pm19 °FClear.3 mph86%30.21 "Hg10 mi
7:50 pm18 °FClear.3 mph86%30.21 "Hg10 mi
7:20 pm19 °FPassing clouds.3 mph93%30.18 "HgN/A
6:50 pm21 °FClear.5 mph86%30.18 "Hg10 mi
6:20 pm19 °FClear.6 mph86%30.18 "Hg10 mi
5:50 pm21 °FClear.5 mph86%30.15 "Hg10 mi
5:20 pm23 °FClear.3 mph80%30.15 "Hg10 mi
4:50 pm23 °FClear.2 mph74%30.15 "Hg10 mi
4:20 pm27 °FClear.1 mph69%30.12 "Hg10 mi
3:50 pm28 °FSunny.2 mph64%30.12 "Hg10 mi
3:20 pm30 °FSunny.1 mph59%30.12 "Hg10 mi
2:50 pm30 °FSunny.2 mph59%30.09 "Hg10 mi
2:20 pm30 °FSunny.No wind55%30.09 "Hg10 mi
Weather by CustomWeather, © 2017

See weather overviewHow to use our weather pages